This is the latest recevied weather packets stored in our database for station/object KC9DRE. If no packets are shown the sender has not sent any weather packets the latest 10 day(s).
| Time | Temp. | Humidity | Pressure | Rain* | Wind** | Luminosity | Snow |
|---|---|---|---|---|---|---|---|
| 1787687476 | 28.33° C | 49% | 1018.7 hPa | 0 mm | - | 656 W/m² | - |
| 1787687173 | 27.78° C | 47% | 1018.8 hPa | 0 mm | - | 668 W/m² | - |
| 1787686873 | 27.78° C | 48% | 1018.8 hPa | 0 mm | - | 670 W/m² | - |
| 1787686569 | 27.78° C | 51% | 1019 hPa | 0 mm | - | 686 W/m² | - |
| 1787686263 | 28.89° C | 49% | 1019.1 hPa | 0 mm | - | 692 W/m² | - |
| 1787685959 | 30° C | 49% | 1019.3 hPa | 0 mm | - | 710 W/m² | - |
| 1787685655 | 28.89° C | 48% | 1019.3 hPa | 0 mm | - | 715 W/m² | - |
| 1787685354 | 28.33° C | 47% | 1019.4 hPa | 0 mm | - | 714 W/m² | - |
| 1787685049 | 28.33° C | 48% | 1019.7 hPa | 0 mm | - | 734 W/m² | - |
| 1787684745 | 28.33° C | 48% | 1019.5 hPa | 0 mm | - | 749 W/m² | - |
| 1787684444 | 27.78° C | 48% | 1019.4 hPa | 0 mm | - | 748 W/m² | - |
| 1787684140 | 28.33° C | 49% | 1019.5 hPa | 0 mm | - | 755 W/m² | - |
| 1787683838 | 27.78° C | 51% | 1019.6 hPa | 0 mm | - | 759 W/m² | - |
| 1787683534 | 27.78° C | 53% | 1019.6 hPa | 0 mm | - | 762 W/m² | - |
| 1787683229 | 27.78° C | 51% | 1019.5 hPa | 0 mm | - | 765 W/m² | - |
| 1787682926 | 28.33° C | 50% | 1019.7 hPa | 0 mm | - | 750 W/m² | - |
| 1787682622 | 27.78° C | 49% | 1019.4 hPa | 0 mm | - | 768 W/m² | - |
| 1787682317 | 27.78° C | 48% | 1019.6 hPa | 0 mm | - | 782 W/m² | - |
| 1787682013 | 27.78° C | 49% | 1019.5 hPa | 0 mm | - | 778 W/m² | - |
| 1787681708 | 27.78° C | 53% | 1019.7 hPa | 0 mm | - | 793 W/m² | - |
| 1787681402 | 27.22° C | 50% | 1019.8 hPa | 0 mm | - | 787 W/m² | - |
| 1787681098 | 27.22° C | 48% | 1019.8 hPa | 0 mm | - | 803 W/m² | - |
| 1787680797 | 28.89° C | 47% | 1019.8 hPa | 0 mm | - | 795 W/m² | - |
| 1787680493 | 28.89° C | 49% | 1019.9 hPa | 0 mm | - | 797 W/m² | - |
| 1787680190 | 28.89° C | 45% | 1020 hPa | 0 mm | - | 780 W/m² | - |
* Rain latest hour (hover to see other rain measurements)
** Current wind speed in m/s (hover to see current wind gust speed)